Nashua, NH

7:53 AM EST on February 24, 2017 (GMT -0500)
Boire

Weather History for KASH - November, 2012

Change the Weather History Date:

Wednesday, November 14, 2012

  Actual Average Record
Temperature  
Mean Temperature 36 °F -  
Max Temperature 45 °F 47 °F 71 °F (1989)
Min Temperature 27 °F 27 °F 12 °F (1986)
Degree Days  
Heating Degree Days 29    
Moisture  
Dew Point 24 °F    
Average Humidity 64    
Maximum Humidity 92    
Minimum Humidity 39    
Precipitation  
Precipitation 0.00 in - - ()
Sea Level Pressure  
Sea Level Pressure 30.52 in    
Wind  
Wind Speed 3 mph (NNW)    
Max Wind Speed 9 mph    
Max Gust Speed -    
Visibility 10 miles    
Events      
Averages and records for this station are not official NWS values.
T = Trace of Precipitation, MM = Missing Value Source: NWS Daily Summary

Daily Weather History Graph

Daily Weather History Graph

Search for Another Location

Airport or City:

Trip Planner

Search our weather history database for the weather conditions in past years. The results will help you decide how hot, cold, wet, or windy it might be!

Date:

Astronomy

Nov. 14, 2012 Rise Set
Actual Time 6:37 AM EST 4:23 PM EST
Civil Twilight 6:06 AM EST 4:53 PM EST
Nautical Twilight 5:32 AM EST 5:28 PM EST
Astronomical Twilight 4:59 AM EST 6:01 PM EST
Moon 7:24 AM EST (11/14) 5:07 PM EST (11/14)
Length of Visible Light 10h 47m
Length of Day
9h 46m
New Moon, 1% of the Moon is Illuminated
Nov 14
New Moon
Nov 20
First Quarter
Nov 28
Full
Dec 6
Last Quarter
Dec 13
New

Hourly Weather History & Observations

Time (EST) Temp. Windchill Dew Point Humidity Pressure Visibility Wind Dir Wind Speed Gust Speed Precip Events Conditions
12:51 AM 34.9 °F - 27.1 °F 73% 30.46 in 10.0 mi Calm Calm - N/A   Mostly Cloudy
1:51 AM 34.0 °F 28.8 °F 26.1 °F 73% 30.47 in 10.0 mi NW 5.8 mph - N/A   Overcast
2:51 AM 34.9 °F - 27.1 °F 73% 30.48 in 10.0 mi Calm Calm - N/A   Overcast
3:51 AM 34.9 °F 32.0 °F 26.1 °F 70% 30.49 in 10.0 mi NW 3.5 mph - N/A   Overcast
4:51 AM 34.0 °F 31.0 °F 27.1 °F 76% 30.51 in 10.0 mi NW 3.5 mph - N/A   Mostly Cloudy
5:51 AM 31.1 °F - 27.1 °F 85% 30.53 in 10.0 mi Calm Calm - N/A   Clear
6:51 AM 29.1 °F 24.1 °F 27.1 °F 92% 30.55 in 10.0 mi NW 4.6 mph - N/A   Clear
7:51 AM 34.0 °F 29.8 °F 26.1 °F 73% 30.57 in 10.0 mi NW 4.6 mph - N/A   Clear
8:51 AM 37.9 °F - 24.1 °F 57% 30.58 in 10.0 mi Calm Calm - N/A   Clear
9:51 AM 39.9 °F 36.7 °F 24.1 °F 53% 30.58 in 10.0 mi Variable 4.6 mph - N/A   Clear
10:51 AM 41.9 °F 36.3 °F 23.0 °F 47% 30.56 in 10.0 mi North 9.2 mph - N/A   Clear
11:51 AM 43.9 °F 42.3 °F 23.0 °F 44% 30.53 in 10.0 mi NNE 3.5 mph - N/A   Clear
12:51 PM 45.0 °F 40.6 °F 22.1 °F 40% 30.52 in 10.0 mi North 8.1 mph - N/A   Clear
1:51 PM 45.0 °F 41.2 °F 21.0 °F 39% 30.50 in 8.0 mi Variable 6.9 mph - N/A   Clear
2:51 PM 45.0 °F 41.2 °F 22.1 °F 40% 30.49 in 8.0 mi NNW 6.9 mph - N/A   Clear
3:51 PM 45.0 °F 41.2 °F 22.1 °F 40% 30.50 in 10.0 mi North 6.9 mph - N/A   Clear
4:51 PM 41.9 °F - 22.1 °F 45% 30.51 in 10.0 mi Calm Calm - N/A   Clear
5:51 PM 36.0 °F 31.1 °F 26.1 °F 67% 30.52 in 10.0 mi NW 5.8 mph - N/A   Clear
6:51 PM 34.0 °F 31.0 °F 25.2 °F 70% 30.54 in 10.0 mi WNW 3.5 mph - N/A   Clear
7:51 PM 32.0 °F 28.7 °F 25.2 °F 76% 30.53 in 10.0 mi NNW 3.5 mph - N/A   Clear
8:51 PM 34.9 °F - 22.1 °F 60% 30.53 in 10.0 mi Calm Calm - N/A   Clear
9:51 PM 30.0 °F - 23.0 °F 75% 30.53 in 10.0 mi Calm Calm - N/A   Clear
10:51 PM 27.1 °F 23.2 °F 23.0 °F 84% 30.53 in 10.0 mi NW 3.5 mph - N/A   Clear
11:51 PM 30.0 °F 26.5 °F 23.0 °F 75% 30.52 in 10.0 mi NNW 3.5 mph - N/A   Clear